Year,Month,Day,Hour,Minute,Value (Times are PST for temperature in C)
2015,04,18,00,00,8.40
2015,04,18,00,01,8.40
2015,04,18,00,02,8.40
2015,04,18,00,03,8.40
2015,04,18,00,04,8.40
2015,04,18,00,05,8.30
2015,04,18,00,06,8.30
2015,04,18,00,07,8.30
2015,04,18,00,08,8.30
2015,04,18,00,09,8.30
2015,04,18,00,10,8.30
2015,04,18,00,11,8.20
2015,04,18,00,12,8.20
2015,04,18,00,13,8.20
2015,04,18,00,14,8.20
2015,04,18,00,15,8.10
2015,04,18,00,16,8.10
2015,04,18,00,17,8.10
2015,04,18,00,18,8.00
2015,04,18,00,19,8.00
2015,04,18,00,20,7.90
2015,04,18,00,21,7.90
2015,04,18,00,22,7.80
2015,04,18,00,23,7.80
2015,04,18,00,24,7.80
2015,04,18,00,25,7.70
2015,04,18,00,26,7.70
2015,04,18,00,27,7.70
2015,04,18,00,28,7.70
2015,04,18,00,29,7.70
2015,04,18,00,30,7.70
2015,04,18,00,31,7.70
2015,04,18,00,32,7.70
2015,04,18,00,33,7.70
2015,04,18,00,34,7.70
2015,04,18,00,35,7.80
2015,04,18,00,36,7.80
2015,04,18,00,37,7.80
2015,04,18,00,38,7.80
2015,04,18,00,39,7.80
2015,04,18,00,40,7.80
2015,04,18,00,41,7.80
2015,04,18,00,42,7.80
2015,04,18,00,43,7.70
2015,04,18,00,44,7.70
2015,04,18,00,45,7.70
2015,04,18,00,46,7.70
2015,04,18,00,47,7.70
2015,04,18,00,48,7.60
2015,04,18,00,49,7.60
2015,04,18,00,50,7.60
2015,04,18,00,51,7.60
2015,04,18,00,52,7.60
2015,04,18,00,53,7.50
2015,04,18,00,54,7.50
2015,04,18,00,55,7.50
2015,04,18,00,56,7.40
2015,04,18,00,57,7.40
2015,04,18,00,58,7.40
2015,04,18,00,59,7.40
2015,04,18,01,00,7.40
2015,04,18,01,01,7.30
2015,04,18,01,02,7.30
2015,04,18,01,03,7.30
2015,04,18,01,04,7.40
2015,04,18,01,05,7.40
2015,04,18,01,06,7.40
2015,04,18,01,07,7.40
2015,04,18,01,08,7.40
2015,04,18,01,09,7.40
2015,04,18,01,10,7.40
2015,04,18,01,11,7.40
2015,04,18,01,12,7.40
2015,04,18,01,13,7.40
2015,04,18,01,14,7.40
2015,04,18,01,15,7.40
2015,04,18,01,16,7.40
2015,04,18,01,17,7.40
2015,04,18,01,18,7.40
2015,04,18,01,19,7.40
2015,04,18,01,20,7.30
2015,04,18,01,21,7.30
2015,04,18,01,22,7.30
2015,04,18,01,23,7.30
2015,04,18,01,24,7.30
2015,04,18,01,25,7.20
2015,04,18,01,26,7.20
2015,04,18,01,27,7.20
2015,04,18,01,28,7.20
2015,04,18,01,29,7.20
2015,04,18,01,30,7.10
2015,04,18,01,31,7.10
2015,04,18,01,32,7.10
2015,04,18,01,33,7.00
2015,04,18,01,34,7.00
2015,04,18,01,35,6.90
2015,04,18,01,36,6.90
2015,04,18,01,37,6.90
2015,04,18,01,38,6.90
2015,04,18,01,39,6.90
2015,04,18,01,40,6.80
2015,04,18,01,41,6.80
2015,04,18,01,42,6.80
2015,04,18,01,43,6.80
2015,04,18,01,44,6.80
2015,04,18,01,45,6.80
2015,04,18,01,46,6.70
2015,04,18,01,47,6.70
2015,04,18,01,48,6.70
2015,04,18,01,49,6.70
2015,04,18,01,50,6.60
2015,04,18,01,51,6.60
2015,04,18,01,52,6.60
2015,04,18,01,53,6.60
2015,04,18,01,54,6.60
2015,04,18,01,55,6.60
2015,04,18,01,56,6.60
2015,04,18,01,57,6.60
2015,04,18,01,58,6.60
2015,04,18,01,59,6.60
2015,04,18,02,00,6.60
2015,04,18,02,01,6.60
2015,04,18,02,02,6.70
2015,04,18,02,03,6.70
2015,04,18,02,04,6.70
2015,04,18,02,05,6.70
2015,04,18,02,06,6.60
2015,04,18,02,07,6.60
2015,04,18,02,08,6.60
2015,04,18,02,09,6.60
2015,04,18,02,10,6.60
2015,04,18,02,11,6.60
2015,04,18,02,12,6.60
2015,04,18,02,13,6.50
2015,04,18,02,14,6.50
2015,04,18,02,15,6.50
2015,04,18,02,16,6.40
2015,04,18,02,17,6.40
2015,04,18,02,18,6.40
2015,04,18,02,19,6.40
2015,04,18,02,20,6.40
2015,04,18,02,21,6.30
2015,04,18,02,22,6.30
2015,04,18,02,23,6.30
2015,04,18,02,24,6.30
2015,04,18,02,25,6.30
2015,04,18,02,26,6.30
2015,04,18,02,27,6.30
2015,04,18,02,28,6.30
2015,04,18,02,29,6.30
2015,04,18,02,30,6.40
2015,04,18,02,31,6.40
2015,04,18,02,32,6.40
2015,04,18,02,33,6.40
2015,04,18,02,34,6.40
2015,04,18,02,35,6.40
2015,04,18,02,36,6.40
2015,04,18,02,37,6.40
2015,04,18,02,38,6.40
2015,04,18,02,39,6.40
2015,04,18,02,40,6.40
2015,04,18,02,41,6.40
2015,04,18,02,42,6.40
2015,04,18,02,43,6.40
2015,04,18,02,44,6.30
2015,04,18,02,45,6.30
2015,04,18,02,46,6.30
2015,04,18,02,47,6.30
2015,04,18,02,48,6.30
2015,04,18,02,49,6.30
2015,04,18,02,50,6.20
2015,04,18,02,51,6.20
2015,04,18,02,52,6.20
2015,04,18,02,53,6.20
2015,04,18,02,54,6.10
2015,04,18,02,55,6.10
2015,04,18,02,56,6.10
2015,04,18,02,57,6.00
2015,04,18,02,58,6.00
2015,04,18,02,59,5.90
2015,04,18,03,00,5.90
2015,04,18,03,01,5.90
2015,04,18,03,02,5.80
2015,04,18,03,03,5.80
2015,04,18,03,04,5.80
2015,04,18,03,05,5.80
2015,04,18,03,06,5.80
2015,04,18,03,07,5.80
2015,04,18,03,08,5.80
2015,04,18,03,09,5.70
2015,04,18,03,10,5.70
2015,04,18,03,11,5.70
2015,04,18,03,12,5.70
2015,04,18,03,13,5.70
2015,04,18,03,14,5.70
2015,04,18,03,15,5.70
2015,04,18,03,16,5.70
2015,04,18,03,17,5.60
2015,04,18,03,18,5.60
2015,04,18,03,19,5.60
2015,04,18,03,20,5.60
2015,04,18,03,21,5.60
2015,04,18,03,22,5.50
2015,04,18,03,23,5.50
2015,04,18,03,24,5.50
2015,04,18,03,25,5.50
2015,04,18,03,26,5.40
2015,04,18,03,27,5.40
2015,04,18,03,28,5.40
2015,04,18,03,29,5.40
2015,04,18,03,30,5.40
2015,04,18,03,31,5.40
2015,04,18,03,32,5.40
2015,04,18,03,33,5.40
2015,04,18,03,34,5.30
2015,04,18,03,35,5.30
2015,04,18,03,36,5.30
2015,04,18,03,37,5.30
2015,04,18,03,38,5.30
2015,04,18,03,39,5.30
2015,04,18,03,40,5.30
2015,04,18,03,41,5.30
2015,04,18,03,42,5.30
2015,04,18,03,43,5.30
2015,04,18,03,44,5.30
2015,04,18,03,45,5.30
2015,04,18,03,46,5.30
2015,04,18,03,47,5.30
2015,04,18,03,48,5.30
2015,04,18,03,49,5.30
2015,04,18,03,50,5.30
2015,04,18,03,51,5.30
2015,04,18,03,52,5.30
2015,04,18,03,53,5.30
2015,04,18,03,54,5.30
2015,04,18,03,55,5.30
2015,04,18,03,56,5.30
2015,04,18,03,57,5.30
2015,04,18,03,58,5.30
2015,04,18,03,59,5.30
2015,04,18,04,00,5.30
2015,04,18,04,01,5.30
2015,04,18,04,02,5.30
2015,04,18,04,03,5.30
2015,04,18,04,04,5.30
2015,04,18,04,05,5.30
2015,04,18,04,06,5.30
2015,04,18,04,07,5.20
2015,04,18,04,08,5.20
2015,04,18,04,09,5.20
2015,04,18,04,10,5.20
2015,04,18,04,11,5.20
2015,04,18,04,12,5.20
2015,04,18,04,13,5.10
2015,04,18,04,14,5.10
2015,04,18,04,15,5.10
2015,04,18,04,16,5.10
2015,04,18,04,17,5.10
2015,04,18,04,18,5.10
2015,04,18,04,19,5.10
2015,04,18,04,20,5.00
2015,04,18,04,21,5.00
2015,04,18,04,22,5.00
2015,04,18,04,23,4.90
2015,04,18,04,24,4.90
2015,04,18,04,25,4.90
2015,04,18,04,26,4.90
2015,04,18,04,27,4.90
2015,04,18,04,28,4.90
2015,04,18,04,29,4.90
2015,04,18,04,30,4.90
2015,04,18,04,31,4.80
2015,04,18,04,32,4.80
2015,04,18,04,33,4.80
2015,04,18,04,34,4.80
2015,04,18,04,35,4.80
2015,04,18,04,36,4.80
2015,04,18,04,37,4.80
2015,04,18,04,38,4.80
2015,04,18,04,39,4.80
2015,04,18,04,40,4.80
2015,04,18,04,41,4.80
2015,04,18,04,42,4.80
2015,04,18,04,43,4.80
2015,04,18,04,44,4.70
2015,04,18,04,45,4.80
2015,04,18,04,46,4.70
2015,04,18,04,47,4.70
2015,04,18,04,48,4.70
2015,04,18,04,49,4.70
2015,04,18,04,50,4.70
2015,04,18,04,51,4.70
2015,04,18,04,52,4.70
2015,04,18,04,53,4.70
2015,04,18,04,54,4.70
2015,04,18,04,55,4.70
2015,04,18,04,56,4.70
2015,04,18,04,57,4.70
2015,04,18,04,58,4.70
2015,04,18,04,59,4.70
2015,04,18,05,00,4.70
2015,04,18,05,01,4.70
2015,04,18,05,02,4.60
2015,04,18,05,03,4.60
2015,04,18,05,04,4.60
2015,04,18,05,05,4.60
2015,04,18,05,06,4.60
2015,04,18,05,07,4.60
2015,04,18,05,08,4.60
2015,04,18,05,09,4.60
2015,04,18,05,10,4.50
2015,04,18,05,11,4.50
2015,04,18,05,12,4.50
2015,04,18,05,13,4.50
2015,04,18,05,14,4.40
2015,04,18,05,15,4.40
2015,04,18,05,16,4.40
2015,04,18,05,17,4.40
2015,04,18,05,18,4.40
2015,04,18,05,19,4.40
2015,04,18,05,20,4.40
2015,04,18,05,21,4.40
2015,04,18,05,22,4.30
2015,04,18,05,23,4.30
2015,04,18,05,24,4.30
2015,04,18,05,25,4.30
2015,04,18,05,26,4.30
2015,04,18,05,27,4.30
2015,04,18,05,28,4.30
2015,04,18,05,29,4.30
2015,04,18,05,30,4.30
2015,04,18,05,31,4.30
2015,04,18,05,32,4.30
2015,04,18,05,33,4.20
2015,04,18,05,34,4.20
2015,04,18,05,35,4.20
2015,04,18,05,36,4.20
2015,04,18,05,37,4.20
2015,04,18,05,38,4.20
2015,04,18,05,39,4.20
2015,04,18,05,40,4.20
2015,04,18,05,41,4.20
2015,04,18,05,42,4.20
2015,04,18,05,43,4.20
2015,04,18,05,44,4.20
2015,04,18,05,45,4.20
2015,04,18,05,46,4.10
2015,04,18,05,47,4.10
2015,04,18,05,48,4.10
2015,04,18,05,49,4.10
2015,04,18,05,50,4.10
2015,04,18,05,51,4.10
2015,04,18,05,52,4.10
2015,04,18,05,53,4.10
2015,04,18,05,54,4.10
2015,04,18,05,55,4.10
2015,04,18,05,56,4.10
2015,04,18,05,57,4.10
2015,04,18,05,58,4.10
2015,04,18,05,59,4.10
2015,04,18,06,00,4.10
2015,04,18,06,01,4.10
2015,04,18,06,02,4.10
2015,04,18,06,03,4.10
2015,04,18,06,04,4.10
2015,04,18,06,05,4.10
2015,04,18,06,06,4.10
2015,04,18,06,07,4.10
2015,04,18,06,08,4.10
2015,04,18,06,09,4.10
2015,04,18,06,10,4.10
2015,04,18,06,11,4.10
2015,04,18,06,12,4.10
2015,04,18,06,13,4.10
2015,04,18,06,14,4.00
2015,04,18,06,15,4.00
2015,04,18,06,16,4.00
2015,04,18,06,17,4.00
2015,04,18,06,18,3.90
2015,04,18,06,19,3.90
2015,04,18,06,20,3.90
2015,04,18,06,21,3.90
2015,04,18,06,22,3.90
2015,04,18,06,23,3.90
2015,04,18,06,24,3.90
2015,04,18,06,25,3.90
2015,04,18,06,26,3.90
2015,04,18,06,27,3.90
2015,04,18,06,28,3.90
2015,04,18,06,29,3.80
2015,04,18,06,30,3.80
2015,04,18,06,31,3.80
2015,04,18,06,32,3.80
2015,04,18,06,33,3.80
2015,04,18,06,34,3.80
2015,04,18,06,35,3.80
2015,04,18,06,36,3.80
2015,04,18,06,37,3.80
2015,04,18,06,38,3.80
2015,04,18,06,39,3.80
2015,04,18,06,40,3.80
2015,04,18,06,41,3.80
2015,04,18,06,42,3.80
2015,04,18,06,43,3.80
2015,04,18,06,44,3.70
2015,04,18,06,45,3.70
2015,04,18,06,46,3.70
2015,04,18,06,47,3.70
2015,04,18,06,48,3.70
2015,04,18,06,49,3.70
2015,04,18,06,50,3.70
2015,04,18,06,51,3.70
2015,04,18,06,52,3.70
2015,04,18,06,53,3.70
2015,04,18,06,54,3.80
2015,04,18,06,55,3.80
2015,04,18,06,56,3.80
2015,04,18,06,57,3.80
2015,04,18,06,58,3.80
2015,04,18,06,59,3.80
2015,04,18,07,00,3.80
2015,04,18,07,01,3.80
2015,04,18,07,02,3.80
2015,04,18,07,03,3.80
2015,04,18,07,04,3.80
2015,04,18,07,05,3.80
2015,04,18,07,06,3.80
2015,04,18,07,07,3.80
2015,04,18,07,08,3.80
2015,04,18,07,09,3.80
2015,04,18,07,10,3.90
2015,04,18,07,11,3.90
2015,04,18,07,12,3.90
2015,04,18,07,13,3.90
2015,04,18,07,14,3.90
2015,04,18,07,15,4.00
2015,04,18,07,16,4.00
2015,04,18,07,17,4.10
2015,04,18,07,18,4.10
2015,04,18,07,19,4.10
2015,04,18,07,20,4.20
2015,04,18,07,21,4.20
2015,04,18,07,22,4.20
2015,04,18,07,23,4.30
2015,04,18,07,24,4.30
2015,04,18,07,25,4.30
2015,04,18,07,26,4.40
2015,04,18,07,27,4.40
2015,04,18,07,28,4.40
2015,04,18,07,29,4.40
2015,04,18,07,30,4.40
2015,04,18,07,31,4.40
2015,04,18,07,32,4.50
2015,04,18,07,33,4.50
2015,04,18,07,34,4.60
2015,04,18,07,35,4.60
2015,04,18,07,36,4.60
2015,04,18,07,37,4.70
2015,04,18,07,38,4.70
2015,04,18,07,39,4.70
2015,04,18,07,40,4.80
2015,04,18,07,41,4.80
2015,04,18,07,42,4.80
2015,04,18,07,43,4.90
2015,04,18,07,44,4.90
2015,04,18,07,45,5.00
2015,04,18,07,46,5.10
2015,04,18,07,47,5.20
2015,04,18,07,48,5.20
2015,04,18,07,49,5.20
2015,04,18,07,50,5.30
2015,04,18,07,51,5.30
2015,04,18,07,52,5.30
2015,04,18,07,53,5.30
2015,04,18,07,54,5.40
2015,04,18,07,55,5.40
2015,04,18,07,56,5.40
2015,04,18,07,57,5.40
2015,04,18,07,58,5.50
2015,04,18,07,59,5.50
2015,04,18,08,00,5.50
2015,04,18,08,01,5.60
2015,04,18,08,02,5.60
2015,04,18,08,03,5.60
2015,04,18,08,04,5.60
2015,04,18,08,05,5.60
2015,04,18,08,06,5.70
2015,04,18,08,07,5.70
2015,04,18,08,08,5.70
2015,04,18,08,09,5.80
2015,04,18,08,10,5.80
2015,04,18,08,11,5.80
2015,04,18,08,12,5.80
2015,04,18,08,13,5.80
2015,04,18,08,14,5.90
2015,04,18,08,15,5.90
2015,04,18,08,16,5.90
2015,04,18,08,17,6.00
2015,04,18,08,18,6.00
2015,04,18,08,19,6.10
2015,04,18,08,20,6.10
2015,04,18,08,21,6.10
2015,04,18,08,22,6.10
2015,04,18,08,23,6.10
2015,04,18,08,24,6.20
2015,04,18,08,25,6.20
2015,04,18,08,26,6.20
2015,04,18,08,27,6.20
2015,04,18,08,28,6.20
2015,04,18,08,29,6.20
2015,04,18,08,30,6.20
2015,04,18,08,31,6.30
2015,04,18,08,32,6.30
2015,04,18,08,33,6.30
2015,04,18,08,34,6.40
2015,04,18,08,35,6.40
2015,04,18,08,36,6.50
2015,04,18,08,37,6.60
2015,04,18,08,38,6.60
2015,04,18,08,39,6.70
2015,04,18,08,40,6.70
2015,04,18,08,41,6.80
2015,04,18,08,42,6.90
2015,04,18,08,43,6.90
2015,04,18,08,44,7.00
2015,04,18,08,45,7.10
2015,04,18,08,46,7.20
2015,04,18,08,47,7.20
2015,04,18,08,48,7.30
2015,04,18,08,49,7.30
2015,04,18,08,50,7.40
2015,04,18,08,51,7.40
2015,04,18,08,52,7.60
2015,04,18,08,53,7.60
2015,04,18,08,54,7.70
2015,04,18,08,55,7.70
2015,04,18,08,56,7.70
2015,04,18,08,57,7.70
2015,04,18,08,58,7.80
2015,04,18,08,59,7.80
2015,04,18,09,00,7.90
2015,04,18,09,01,8.10
2015,04,18,09,02,8.10
2015,04,18,09,03,8.20
2015,04,18,09,04,8.30
2015,04,18,09,05,8.30
2015,04,18,09,06,8.40
2015,04,18,09,07,8.40
2015,04,18,09,08,8.60
2015,04,18,09,09,8.60
2015,04,18,09,10,8.70
2015,04,18,09,11,8.70
2015,04,18,09,12,8.70
2015,04,18,09,13,8.80
2015,04,18,09,14,8.80
2015,04,18,09,15,8.90
2015,04,18,09,16,9.00
2015,04,18,09,17,9.10
2015,04,18,09,18,9.10
2015,04,18,09,19,9.20
2015,04,18,09,20,9.30
2015,04,18,09,21,9.30
2015,04,18,09,22,9.30
2015,04,18,09,23,9.40
2015,04,18,09,24,9.40
2015,04,18,09,25,9.50
2015,04,18,09,26,9.60
2015,04,18,09,27,9.60
2015,04,18,09,28,9.60
2015,04,18,09,29,9.60
2015,04,18,09,30,9.60
2015,04,18,09,31,9.50
2015,04,18,09,32,9.50
2015,04,18,09,33,9.60
2015,04,18,09,34,9.60
2015,04,18,09,35,9.60
2015,04,18,09,36,9.60
2015,04,18,09,37,9.70
2015,04,18,09,38,9.70
2015,04,18,09,39,9.70
2015,04,18,09,40,9.70
2015,04,18,09,41,9.70
2015,04,18,09,42,9.70
2015,04,18,09,43,9.70
2015,04,18,09,44,9.80
2015,04,18,09,45,9.80
2015,04,18,09,46,9.80
2015,04,18,09,47,9.90
2015,04,18,09,48,9.90
2015,04,18,09,49,9.90
2015,04,18,09,50,9.90
2015,04,18,09,51,9.90
2015,04,18,09,52,9.90
2015,04,18,09,53,10.00
2015,04,18,09,54,10.10
2015,04,18,09,55,10.20
2015,04,18,09,56,10.20
2015,04,18,09,57,10.30
2015,04,18,09,58,10.40
2015,04,18,09,59,10.50
2015,04,18,10,00,10.60
2015,04,18,10,01,10.70
2015,04,18,10,02,10.80
2015,04,18,10,03,10.80
2015,04,18,10,04,10.90
2015,04,18,10,05,10.90
2015,04,18,10,06,11.00
2015,04,18,10,07,11.10
2015,04,18,10,08,11.10
2015,04,18,10,09,11.10
2015,04,18,10,10,11.20
2015,04,18,10,11,11.20
2015,04,18,10,12,11.20
2015,04,18,10,13,11.30
2015,04,18,10,14,11.40
2015,04,18,10,15,11.40
2015,04,18,10,16,11.60
2015,04,18,10,17,11.70
2015,04,18,10,18,11.70
2015,04,18,10,19,11.70
2015,04,18,10,20,11.80
2015,04,18,10,21,11.80
2015,04,18,10,22,11.90
2015,04,18,10,23,12.00
2015,04,18,10,24,12.00
2015,04,18,10,25,12.00
2015,04,18,10,26,12.00
2015,04,18,10,27,11.90
2015,04,18,10,28,11.90
2015,04,18,10,29,11.90
2015,04,18,10,30,11.90
2015,04,18,10,31,12.00
2015,04,18,10,32,12.00
2015,04,18,10,33,12.10
2015,04,18,10,34,12.10
2015,04,18,10,35,12.10
2015,04,18,10,36,12.10
2015,04,18,10,37,12.00
2015,04,18,10,38,12.10
2015,04,18,10,39,12.10
2015,04,18,10,40,12.20
2015,04,18,10,41,12.20
2015,04,18,10,42,12.30
2015,04,18,10,43,12.30
2015,04,18,10,44,12.30
2015,04,18,10,45,12.40
2015,04,18,10,46,12.40
2015,04,18,10,47,12.50
2015,04,18,10,48,12.60
2015,04,18,10,49,12.50
2015,04,18,10,50,12.50
2015,04,18,10,51,12.60
2015,04,18,10,52,12.50
2015,04,18,10,53,12.50
2015,04,18,10,54,12.50
2015,04,18,10,55,12.60
2015,04,18,10,56,12.60
2015,04,18,10,57,12.70
2015,04,18,10,58,12.80
2015,04,18,10,59,12.80
2015,04,18,11,00,12.90
2015,04,18,11,01,12.90
2015,04,18,11,02,13.00
2015,04,18,11,03,13.10
2015,04,18,11,04,13.10
2015,04,18,11,05,13.20
2015,04,18,11,06,13.20
2015,04,18,11,07,13.20
2015,04,18,11,08,13.30
2015,04,18,11,09,13.30
2015,04,18,11,10,13.40
2015,04,18,11,11,13.50
2015,04,18,11,12,13.60
2015,04,18,11,13,13.70
2015,04,18,11,14,13.70
2015,04,18,11,15,13.80
2015,04,18,11,16,13.80
2015,04,18,11,17,13.80
2015,04,18,11,18,13.90
2015,04,18,11,19,14.00
2015,04,18,11,20,14.10
2015,04,18,11,21,14.10
2015,04,18,11,22,14.20
2015,04,18,11,23,14.30
2015,04,18,11,24,14.30
2015,04,18,11,25,14.30
2015,04,18,11,26,14.30
2015,04,18,11,27,14.30
2015,04,18,11,28,14.30
2015,04,18,11,29,14.30
2015,04,18,11,30,14.30
2015,04,18,11,31,14.30
2015,04,18,11,32,14.30
2015,04,18,11,33,14.30
2015,04,18,11,34,14.40
2015,04,18,11,35,14.40
2015,04,18,11,36,14.40
2015,04,18,11,37,14.60
2015,04,18,11,38,14.60
2015,04,18,11,39,14.70
2015,04,18,11,40,14.80
2015,04,18,11,41,14.80
2015,04,18,11,42,14.80
2015,04,18,11,43,14.90
2015,04,18,11,44,15.00
2015,04,18,11,45,15.00
2015,04,18,11,46,15.10
2015,04,18,11,47,15.10
2015,04,18,11,48,15.10
2015,04,18,11,49,15.20
2015,04,18,11,50,15.30
2015,04,18,11,51,15.30
2015,04,18,11,52,15.40
2015,04,18,11,53,15.40
2015,04,18,11,54,15.50
2015,04,18,11,55,15.50
2015,04,18,11,56,15.50
2015,04,18,11,57,15.60
2015,04,18,11,58,15.60
2015,04,18,11,59,15.60
2015,04,18,12,00,15.70
2015,04,18,12,01,15.80
2015,04,18,12,02,15.80
2015,04,18,12,03,15.80
2015,04,18,12,04,15.80
2015,04,18,12,05,15.80
2015,04,18,12,06,15.80
2015,04,18,12,07,15.80
2015,04,18,12,08,15.90
2015,04,18,12,09,15.90
2015,04,18,12,10,15.90
2015,04,18,12,11,16.00
2015,04,18,12,12,16.10
2015,04,18,12,13,16.10
2015,04,18,12,14,16.20
2015,04,18,12,15,16.20
2015,04,18,12,16,16.30
2015,04,18,12,17,16.40
2015,04,18,12,18,16.40
2015,04,18,12,19,16.40
2015,04,18,12,20,16.40
2015,04,18,12,21,16.40
2015,04,18,12,22,16.40
2015,04,18,12,23,16.40
2015,04,18,12,24,16.50
2015,04,18,12,25,16.50
2015,04,18,12,26,16.40
2015,04,18,12,27,16.50
2015,04,18,12,28,16.40
2015,04,18,12,29,16.50
2015,04,18,12,30,16.50
2015,04,18,12,31,16.60
2015,04,18,12,32,16.70
2015,04,18,12,33,16.70
2015,04,18,12,34,16.70
2015,04,18,12,35,16.80
2015,04,18,12,36,16.80
2015,04,18,12,37,16.80
2015,04,18,12,38,16.80
2015,04,18,12,39,16.90
2015,04,18,12,40,16.90
2015,04,18,12,41,17.10
2015,04,18,12,42,17.10
2015,04,18,12,43,17.20
2015,04,18,12,44,17.20
2015,04,18,12,45,17.30
2015,04,18,12,46,17.30
2015,04,18,12,47,17.30
2015,04,18,12,48,17.30
2015,04,18,12,49,17.30
2015,04,18,12,50,17.30
2015,04,18,12,51,17.30
2015,04,18,12,52,17.20
2015,04,18,12,53,17.10
2015,04,18,12,54,17.00
2015,04,18,12,55,16.90
2015,04,18,12,56,16.80
2015,04,18,12,57,16.70
2015,04,18,12,58,16.70
2015,04,18,12,59,16.70
2015,04,18,13,00,16.60
2015,04,18,13,01,16.60
2015,04,18,13,02,16.60
2015,04,18,13,03,16.70
2015,04,18,13,04,16.70
2015,04,18,13,05,16.70
2015,04,18,13,06,16.70
2015,04,18,13,07,16.80
2015,04,18,13,08,16.90
2015,04,18,13,09,17.10
2015,04,18,13,10,17.20
2015,04,18,13,11,17.20
2015,04,18,13,12,17.30
2015,04,18,13,13,17.30
2015,04,18,13,14,17.30
2015,04,18,13,15,17.40
2015,04,18,13,16,17.40
2015,04,18,13,17,17.50
2015,04,18,13,18,17.60
2015,04,18,13,19,17.60
2015,04,18,13,20,17.70
2015,04,18,13,21,17.80
2015,04,18,13,22,17.80
2015,04,18,13,23,17.80
2015,04,18,13,24,17.90
2015,04,18,13,25,17.90
2015,04,18,13,26,18.00
2015,04,18,13,27,17.90
2015,04,18,13,28,17.90
2015,04,18,13,29,17.90
2015,04,18,13,30,18.00
2015,04,18,13,31,18.00
2015,04,18,13,32,17.90
2015,04,18,13,33,17.80
2015,04,18,13,34,17.80
2015,04,18,13,35,17.70
2015,04,18,13,36,17.70
2015,04,18,13,37,17.70
2015,04,18,13,38,17.80
2015,04,18,13,39,17.80
2015,04,18,13,40,17.90
2015,04,18,13,41,18.00
2015,04,18,13,42,18.10
2015,04,18,13,43,18.20
2015,04,18,13,44,18.30
2015,04,18,13,45,18.30
2015,04,18,13,46,18.20
2015,04,18,13,47,18.20
2015,04,18,13,48,18.10
2015,04,18,13,49,18.10
2015,04,18,13,50,18.10
2015,04,18,13,51,18.10
2015,04,18,13,52,18.20
2015,04,18,13,53,18.20
2015,04,18,13,54,18.10
2015,04,18,13,55,18.10
2015,04,18,13,56,18.20
2015,04,18,13,57,18.30
2015,04,18,13,58,18.40
2015,04,18,13,59,18.40
2015,04,18,14,00,18.60
2015,04,18,14,01,18.70
2015,04,18,14,02,18.70
2015,04,18,14,03,18.80
2015,04,18,14,04,18.80
2015,04,18,14,05,18.80
2015,04,18,14,06,18.90
2015,04,18,14,07,19.10
2015,04,18,14,08,19.10
2015,04,18,14,09,19.20
2015,04,18,14,10,19.30
2015,04,18,14,11,19.30
2015,04,18,14,12,19.30
2015,04,18,14,13,19.30
2015,04,18,14,14,19.30
2015,04,18,14,15,19.20
2015,04,18,14,16,19.20
2015,04,18,14,17,19.20
2015,04,18,14,18,19.30
2015,04,18,14,19,19.30
2015,04,18,14,20,19.40
2015,04,18,14,21,19.60
2015,04,18,14,22,19.70
2015,04,18,14,23,19.80
2015,04,18,14,24,19.90
2015,04,18,14,25,19.90
2015,04,18,14,26,19.90
2015,04,18,14,27,19.90
2015,04,18,14,28,19.90
2015,04,18,14,29,19.90
2015,04,18,14,30,20.10
2015,04,18,14,31,20.10
2015,04,18,14,32,20.20
2015,04,18,14,33,20.20
2015,04,18,14,34,20.30
2015,04,18,14,35,20.30
2015,04,18,14,36,20.30
2015,04,18,14,37,20.30
2015,04,18,14,38,20.40
2015,04,18,14,39,20.30
2015,04,18,14,40,20.30
2015,04,18,14,41,20.20
2015,04,18,14,42,20.20
2015,04,18,14,43,20.20
2015,04,18,14,44,20.20
2015,04,18,14,45,20.20
2015,04,18,14,46,20.30
2015,04,18,14,47,20.30
2015,04,18,14,48,20.40
2015,04,18,14,49,20.50
2015,04,18,14,50,20.60
2015,04,18,14,51,20.70
2015,04,18,14,52,20.70
2015,04,18,14,53,20.80
2015,04,18,14,54,20.80
2015,04,18,14,55,20.70
2015,04,18,14,56,20.60
2015,04,18,14,57,20.60
2015,04,18,14,58,20.70
2015,04,18,14,59,20.70
2015,04,18,15,00,20.70
2015,04,18,15,01,20.80
2015,04,18,15,02,20.80
2015,04,18,15,03,20.80
2015,04,18,15,04,20.90
2015,04,18,15,05,20.90
2015,04,18,15,06,20.80
2015,04,18,15,07,20.70
2015,04,18,15,08,20.60
2015,04,18,15,09,20.60
2015,04,18,15,10,20.60
2015,04,18,15,11,20.60
2015,04,18,15,12,20.60
2015,04,18,15,13,20.60
2015,04,18,15,14,20.70
2015,04,18,15,15,20.70
2015,04,18,15,16,20.80
2015,04,18,15,17,20.80
2015,04,18,15,18,20.80
2015,04,18,15,19,20.80
2015,04,18,15,20,20.80
2015,04,18,15,21,20.70
2015,04,18,15,22,20.80
2015,04,18,15,23,20.80
2015,04,18,15,24,20.80
2015,04,18,15,25,20.90
2015,04,18,15,26,20.90
2015,04,18,15,27,20.90
2015,04,18,15,28,20.90
2015,04,18,15,29,20.90
2015,04,18,15,30,21.00
2015,04,18,15,31,21.10
2015,04,18,15,32,21.10
2015,04,18,15,33,21.20
2015,04,18,15,34,21.30
2015,04,18,15,35,21.30
2015,04,18,15,36,21.40
2015,04,18,15,37,21.50
2015,04,18,15,38,21.50
2015,04,18,15,39,21.50
2015,04,18,15,40,21.40
2015,04,18,15,41,21.30
2015,04,18,15,42,21.20
2015,04,18,15,43,21.20
2015,04,18,15,44,21.20
2015,04,18,15,45,21.20
2015,04,18,15,46,21.20
2015,04,18,15,47,21.20
2015,04,18,15,48,21.30
2015,04,18,15,49,21.30
2015,04,18,15,50,21.30
2015,04,18,15,51,21.40
2015,04,18,15,52,21.40
2015,04,18,15,53,21.40
2015,04,18,15,54,21.50
2015,04,18,15,55,21.60
2015,04,18,15,56,21.60
2015,04,18,15,57,21.70
2015,04,18,15,58,21.60
2015,04,18,15,59,21.60
2015,04,18,16,00,21.60
2015,04,18,16,01,21.60
2015,04,18,16,02,21.70
2015,04,18,16,03,21.70
2015,04,18,16,04,21.70
2015,04,18,16,05,21.70
2015,04,18,16,06,21.70
2015,04,18,16,07,21.60
2015,04,18,16,08,21.40
2015,04,18,16,09,21.30
2015,04,18,16,10,21.30
2015,04,18,16,11,21.30
2015,04,18,16,12,21.30
2015,04,18,16,13,21.30
2015,04,18,16,14,21.30
2015,04,18,16,15,21.20
2015,04,18,16,16,21.20
2015,04,18,16,17,21.20
2015,04,18,16,18,21.20
2015,04,18,16,19,21.30
2015,04,18,16,20,21.30
2015,04,18,16,21,21.40
2015,04,18,16,22,21.40
2015,04,18,16,23,21.40
2015,04,18,16,24,21.30
2015,04,18,16,25,21.30
2015,04,18,16,26,21.30
2015,04,18,16,27,21.30
2015,04,18,16,28,21.30
2015,04,18,16,29,21.40
2015,04,18,16,30,21.40
2015,04,18,16,31,21.60
2015,04,18,16,32,21.70
2015,04,18,16,33,21.70
2015,04,18,16,34,21.70
2015,04,18,16,35,21.60
2015,04,18,16,36,21.50
2015,04,18,16,37,21.40
2015,04,18,16,38,21.30
2015,04,18,16,39,21.30
2015,04,18,16,40,21.30
2015,04,18,16,41,21.30
2015,04,18,16,42,21.20
2015,04,18,16,43,21.20
2015,04,18,16,44,21.20
2015,04,18,16,45,21.20
2015,04,18,16,46,21.20
2015,04,18,16,47,21.30
2015,04,18,16,48,21.30
2015,04,18,16,49,21.30
2015,04,18,16,50,21.30
2015,04,18,16,51,21.30
2015,04,18,16,52,21.40
2015,04,18,16,53,21.50
2015,04,18,16,54,21.60
2015,04,18,16,55,21.60
2015,04,18,16,56,21.50
2015,04,18,16,57,21.50
2015,04,18,16,58,21.50
2015,04,18,16,59,21.50
2015,04,18,17,00,21.60
2015,04,18,17,01,21.60
2015,04,18,17,02,21.50
2015,04,18,17,03,21.40
2015,04,18,17,04,21.30
2015,04,18,17,05,21.30
2015,04,18,17,06,21.30
2015,04,18,17,07,21.40
2015,04,18,17,08,21.40
2015,04,18,17,09,21.40
2015,04,18,17,10,21.40
2015,04,18,17,11,21.30
2015,04,18,17,12,21.30
2015,04,18,17,13,21.30
2015,04,18,17,14,21.20
2015,04,18,17,15,21.10
2015,04,18,17,16,20.90
2015,04,18,17,17,20.80
2015,04,18,17,18,20.80
2015,04,18,17,19,20.80
2015,04,18,17,20,20.80
2015,04,18,17,21,20.80
2015,04,18,17,22,20.80
2015,04,18,17,23,20.90
2015,04,18,17,24,20.90
2015,04,18,17,25,20.90
2015,04,18,17,26,20.90
2015,04,18,17,27,20.80
2015,04,18,17,28,20.70
2015,04,18,17,29,20.70
2015,04,18,17,30,20.60
2015,04,18,17,31,20.50
2015,04,18,17,32,20.40
2015,04,18,17,33,20.40
2015,04,18,17,34,20.40
2015,04,18,17,35,20.30
2015,04,18,17,36,20.20
2015,04,18,17,37,20.20
2015,04,18,17,38,20.10
2015,04,18,17,39,20.10
2015,04,18,17,40,20.10
2015,04,18,17,41,20.10
2015,04,18,17,42,20.10
2015,04,18,17,43,20.10
2015,04,18,17,44,20.10
2015,04,18,17,45,20.10